#timestamp,LO_Frequency,Hit,StdDev 
1662728415.6,286047001.3,N
1662728435.4,286047000.4,N
1662728455.3,286046999.1,N
1662728475.1,286046997.5,N
1662728495.8,286046996.9,N
1662728515.7,286046996.6,N
1662728535.5,286046998.9,N
1662728555.3,286047000.6,N
1662728575.2,286046996.9,N
1662728595.0,286046999.2,N
1662728595.9,286046999.2,N
1662728615.8,286047002.0,N
1662728635.6,286047003.7,N
1662728655.4,286047005.8,Y
1662728675.3,286047008.8,P
1662728695.1,286047006.1,N
1662728715.9,286047006.7,N
1662728735.7,286047005.6,N
1662728755.5,286047006.9,N
1662728775.4,286047004.7,N
1662728795.2,286047005.8,N
1662728815.0,286047007.3,N
1662728815.9,286047007.3,N
1662728835.8,286047006.5,N
1662728855.6,286047003.2,N
1662728875.5,286047003.5,N
1662728895.3,286047001.2,N
1662728915.1,286047000.5,N
1662728935.9,286047000.5,N
1662728955.7,286047002.7,N
1662728975.5,286047004.3,N
1662728995.4,286047001.8,N
1662729015.2,286047004.4,N
1662729035.1,286046999.7,N
1662729036.0,286046999.7,N
1662729055.8,286047001.3,N
1662729075.6,286047003.9,N
1662729095.5,286047005.3,N
1662729115.3,286047005.1,N
1662729135.1,286047005.0,N
1662729155.9,286047005.6,N
1662729175.7,286047005.9,N
1662729195.6,286047005.0,N
1662729215.4,286047003.3,N
1662729235.2,286047005.2,N
1662729255.1,286047003.3,N
1662729256.0,286047003.3,N
1662729275.8,286047003.6,N
1662729295.6,286047005.9,N
1662729315.5,286047003.4,N
1662729335.3,286047002.9,N
1662729355.2,286047004.0,N
1662729375.9,286047004.8,N
1662729395.7,286047007.1,Y
1662729415.6,286047003.4,P
1662729435.4,286047003.9,P
1662729455.2,286047001.7,P
1662729475.1,286047003.2,Y
1662729476.0,286047003.2,P
1662729495.8,286047001.2,P
1662729515.7,286046998.1,N
1662729535.5,286047000.3,N
1662729555.3,286047000.2,N
1662729575.2,286047000.4,N
1662729595.0,286047001.1,N
1662729595.9,286047001.1,N
1662729615.7,286047001.0,N
1662729635.6,286047000.0,N
1662729655.4,286046998.2,N
1662729675.3,286047000.7,N
1662729695.1,286047000.1,N
1662729696.0,286047000.1,N
1662729715.8,286046999.8,N
1662729735.7,286047000.9,N
1662729755.5,286046998.2,N
1662729775.3,286046999.0,N
1662729795.2,286046997.7,N
1662729815.0,286046999.2,N
1662729815.9,286046999.2,N
1662729835.8,286047001.2,N
1662729855.6,286046999.6,N
1662729875.4,286046995.0,Y
1662729895.3,286046991.2,P
1662729915.1,286046988.5,N
1662729935.8,286046986.0,N
1662729955.7,286046985.9,N
1662729975.5,286046985.2,N
1662729995.4,286046983.1,Y
1662730015.2,286046992.5,P
1662730035.0,286046988.9,P
1662730035.9,286046988.9,P
1662730055.8,286046994.7,Y
1662730075.6,286047003.8,P
1662730095.5,286047004.0,N
1662730115.3,286047002.6,N
1662730135.1,286047004.2,N
1662730155.9,286047003.8,N
1662730175.7,286047006.0,N
1662730195.5,286047001.6,N
1662730215.4,286046998.9,N
1662730235.2,286046996.9,N
1662730255.0,286046998.4,N
1662730255.9,286046998.4,N
1662730275.8,286046998.3,N
1662730295.6,286047001.2,N
1662730315.5,286047001.1,N
1662730335.3,286046998.1,N
1662730355.1,286046997.3,N
1662730375.9,286046994.8,N
1662730395.7,286046988.5,N
1662730415.5,286046990.8,N
1662730435.4,286046994.5,N
1662730455.2,286046997.8,N
1662730475.1,286046997.7,N
1662730476.0,286046997.7,N
1662730495.8,286046999.0,N
1662730515.6,286047001.2,N
1662730535.5,286046998.6,N
1662730555.3,286046995.4,N
1662730575.1,286046995.2,N
1662730595.9,286046991.8,N
1662730615.7,286046993.9,N
1662730635.6,286046994.1,N
1662730655.4,286046996.4,N
1662730675.2,286046993.2,N
1662730695.1,286046988.6,N
1662730696.0,286046988.6,N
1662730715.8,286046989.3,N
1662730735.6,286046985.3,Y
1662730755.5,286046993.1,P
1662730775.3,286046992.7,P
1662730795.2,286046991.8,P
1662730815.9,286046994.9,Y
1662730835.7,286047007.2,P
1662730855.6,286047010.6,N
1662730875.4,286047010.6,N
1662730895.2,286047009.3,N
1662730915.1,286047010.6,N
1662730916.0,286047010.6,N
1662730935.8,286047012.4,N
1662730955.7,286047011.6,N
1662730975.5,286047011.3,N
1662730995.3,286047012.1,N
1662731015.2,286047011.7,N
1662731035.0,286047013.3,N
1662731035.9,286047013.3,N
1662731055.7,286047011.1,N
1662731075.6,286047013.2,N
1662731095.4,286047013.8,Y
1662731115.3,286047001.6,P
1662731135.1,286046999.7,N
1662731155.8,286047002.6,N
1662731175.7,286047004.0,N
1662731195.5,286047005.7,N
1662731215.4,286047005.9,N
1662731235.2,286047005.7,N
1662731255.0,286047005.2,N
1662731255.9,286047005.2,N
1662731275.8,286047004.5,N
1662731295.6,286047008.8,Y
1662731315.5,286047003.0,P
1662731335.3,286047008.5,P
1662731355.1,286047006.6,N
1662731375.9,286047012.3,Y
1662731395.7,286047006.3,P
1662731415.5,286047008.2,P
1662731435.4,286047009.6,P
1662731455.2,286047011.6,Y
1662731475.1,286047005.1,P
1662731476.0,286047005.1,P
1662731495.8,286047006.5,P
1662731515.6,286047006.6,Y
1662731535.5,286047000.1,P
1662731555.3,286047002.1,N
1662731575.1,286047000.0,N
1662731595.9,286047002.6,N
1662731615.7,286047001.2,N
1662731635.6,286047000.8,N
1662731655.4,286047000.2,N
1662731675.2,286047000.3,N
1662731695.1,286046996.2,N
1662731696.0,286046996.2,N
1662731715.8,286046992.0,Y
1662731735.6,286046988.8,P
1662731755.5,286046987.2,N
1662731775.3,286046985.2,N
1662731795.2,286046982.7,N
1662731815.9,286046981.4,Y
1662731835.7,286046991.0,P
1662731855.6,286046990.2,P
1662731875.4,286046990.9,P
1662731895.2,286046989.0,Y
1662731915.1,286046997.1,P
1662731916.0,286046997.1,N
1662731935.8,286046998.9,N
1662731955.7,286047000.1,N
1662731975.5,286047000.5,N
1662731995.3,286046998.5,N
